Regional Weather Roundup
Issued by NWS

Home | Current Version | Previous Version | Text Only | Print | Product List | Glossary Off
Versions: 1 2 3 4 5 6 7 8 9 10 11 12 13 14 15 16 17 18 19 20 21 22 23 24 25 26 27 28 29 30 31 32 33 34 35 36 37 38 39 40 41 42 43 44 45 46 47 48 49 50

000
ASUS43 KDMX 210801
RWRIA

WEATHER ROUNDUP FOR IOWA
NATIONAL WEATHER SERVICE DES MOINES IA
200 AM CST TUE FEB 21 2017

NOTE: "FAIR" INDICATES FEW OR NO CLOUDS BELOW 12,000 FEET WITH NO
SIGNIFICANT WEATHER AND/OR OBSTRUCTIONS TO VISIBILITY.

* - THESE STATIONS ARE NOT NWS STATIONS...THUS NOT UNDER NWS
QUALITY CONTROL.  THEY ALSO DO NOT REPORT WEATHER SUCH
AS PRECIPITATION OR FOG.

IAZ001>003-012>014-020>022-031>034-043>046-210900-
   NORTHWEST IOWA

CITY           SKY/WX    TMP DP  RH WIND       PRES   REMARKS
CARROLL *      CLEAR     36  36 100 W7        29.93F WCI  30
CHEROKEE *       N/A     30  30 100 CALM      29.94R FOG
DENISON *      FOG       34  34 100 SE5       29.93F VSB 3/4 WCI  30
LE MARS *      FOG       30  30 100 CALM      29.94S VSB 1/4
SHELDON *      FOG       32  32 100 CALM      29.91R VSB<1/4
SIOUX CITY     FOG       32  30  92 E9        29.93S VSB 1/2 WCI  24
SPENCER        CLEAR     33  33 100 S7        29.92S WCI  27
STORM LAKE *   CLEAR     41  39  93 SW8       29.93F
$$

IAZ055>058-069>071-079>083-090>094-210900-
   SOUTHWEST IOWA

CITY           SKY/WX    TMP DP  RH WIND       PRES   REMARKS
ATLANTIC *     CLEAR     36  36 100 CALM      29.95F FOG
CLARINDA *     CLEAR     37  37 100 CALM      29.99R FOG
COUNCIL BLFS * CLEAR     45  43  93 CALM      29.95F
CRESTON *      CLEAR     43  39  87 NW9       29.97R
HARLAN  *      CLEAR     34  34 100 CALM      29.98F
LAMONI         CLOUDY    49  45  86 N9        29.94R
RED OAK *      CLEAR     37  37 100 CALM      29.96S
SHENANDOAH *   CLEAR     39  37  93 CALM      29.97R
$$

IAZ047>049-059>061-072>074-084-210900-
   CENTRAL IOWA

CITY           SKY/WX    TMP DP  RH WIND       PRES   REMARKS
AMES           CLEAR     43  42  97 NW3       29.94R
ANKENY *       PTCLDY    46  43  87 NW7       29.95S
BOONE *        CLEAR     43  43 100 NW6       29.92F
CHARITON *     PTCLDY    48  45  87 NW7       29.94R
DES MOINES     PTCLDY    47  42  83 NW8       29.95R
GRINNELL*      CLOUDY    44  42  91 NW8       29.95R
KNOXVILLE *    MOCLDY    48  45  87 NW10      29.93R
MARSHALLTOWN   CLOUDY    39  38  96 NW10      29.92R WCI  32
NEWTON *       PTCLDY    46  43  87 N7        29.93R
PELLA *        CLOUDY    47  45  93 NW7       29.95R
PERRY *          N/A     40  39  95 W6        29.94S
$$

IAZ004>006-015-016-023>025-035-036-210900-
   NORTH CENTRAL IOWA

CITY           SKY/WX    TMP DP  RH WIND       PRES   REMARKS
ALGONA *       CLEAR     37  37 100 W9        29.92R WCI  31
CLARION *      CLEAR     36  36 100 W5        29.92F FOG     WCI  32
ESTHERVILLE    CLEAR     34  34 100 S3        29.90S
FORT DODGE *   CLEAR     36  32  87 CALM      29.93F
MASON CITY     CLEAR     36  35  96 W8        29.91F WCI  30
FOREST CITY *    N/A     32  32 100 W5        29.91S FOG     WCI  27
IOWA FALLS *     N/A     39  38  95 W7        29.93F WCI  34
$$

IAZ007>011-017>019-026>030-037>042-050>054-066-210900-
   NORTHEAST IOWA

CITY           SKY/WX    TMP DP  RH WIND       PRES   REMARKS
CEDAR RAPIDS   CLOUDY    48  47  96 NW9       29.90R
CHARLES CITY * CLEAR     41  41 100 W6        29.91S
CLINTON *      CLOUDY    54  53  97 S7        29.90R
DECORAH *      CLOUDY    43  41  93 VRB5      29.89R
DUBUQUE        CLOUDY    53  53 100 W9        29.88R FOG
MONTICELLO *   MOCLDY    50  48  93 NW9       29.90R
OELWEIN *      PTCLDY    43  43 100 NW9       29.92R
WATERLOO       CLOUDY    44  40  85 W6        29.92R
$$

IAZ064-065-067-068-078-210900-
   EAST CENTRAL IOWA

CITY           SKY/WX    TMP DP  RH WIND       PRES   REMARKS
DAVENPORT      CLOUDY    56  55  97 SW6       29.90R
IOWA CITY      CLOUDY    53  48  83 NW6       29.91R
MUSCATINE *    CLOUDY    55  55 100 CALM      29.90S
QUAD CITIES    CLOUDY    58  55  90 W5        29.90R
$$

IAZ062-063-075>077-085>089-095>099-210900-
   SOUTHEAST IOWA

CITY           SKY/WX    TMP DP  RH WIND       PRES   REMARKS
BURLINGTON     CLOUDY    57  57 100 SW7       29.90S FOG
FAIRFIELD *    CLOUDY    54  52  94 NW8       29.91R
KEOKUK *       CLOUDY    59  57  94 SW7       29.90F
OTTUMWA        MOCLDY    50  47  89 NW9       29.93R
WASHINGTON *   MOCLDY    55  55 100 NW8       29.91S FOG
$$

ABBREVIATIONS USED IN REMARKS
   TC - TEMPERATURES IN CELSIUS
  WCI - WIND CHILL INDEX
   HX - HEAT INDEX
  VSB - VISIBILITY
$$





USA.gov is the U.S. government's official web portal to all federal, state and local government web resources and services.